Terug naar catalogus

STARLINK-11499

ActiefCommunicatieVLEO
NORAD 62279·PAYLOAD·🇺🇸 United States

Gelanceerd Dec 8, 2024 vanaf Cape Canaveral Space Force Station

Loading…

Volgende Passages (komende 24 uur)

TLE

VersSource: CelesTrak SupGP

Epoch: Sep 15, 2026, 03:50 UTC

1 62279C 24237N   26258.16020833 -.00015785  00000+0 -12263-3 0  2582
2 62279  43.0005 355.1876 0001655 266.7562 100.4382 15.70840855    18

Volg STARLINK-11499 in realtime met AllMySat

Download on the App Store